Year,Month,Day,Hour,Minute,Value (Times are PST for temperature in C)
2007,04,12,00,00,6.10
2007,04,12,00,01,6.10
2007,04,12,00,02,6.10
2007,04,12,00,03,6.20
2007,04,12,00,04,6.20
2007,04,12,00,05,6.20
2007,04,12,00,06,6.20
2007,04,12,00,07,6.20
2007,04,12,00,08,6.20
2007,04,12,00,09,6.30
2007,04,12,00,10,6.30
2007,04,12,00,11,6.30
2007,04,12,00,12,6.30
2007,04,12,00,13,6.30
2007,04,12,00,14,6.30
2007,04,12,00,15,6.30
2007,04,12,00,16,6.30
2007,04,12,00,17,6.30
2007,04,12,00,18,6.30
2007,04,12,00,19,6.30
2007,04,12,00,20,6.30
2007,04,12,00,21,6.30
2007,04,12,00,22,6.30
2007,04,12,00,23,6.30
2007,04,12,00,24,6.30
2007,04,12,00,25,6.30
2007,04,12,00,26,6.30
2007,04,12,00,27,6.30
2007,04,12,00,28,6.30
2007,04,12,00,29,6.30
2007,04,12,00,30,6.40
2007,04,12,00,31,6.40
2007,04,12,00,32,6.40
2007,04,12,00,33,6.40
2007,04,12,00,34,6.40
2007,04,12,00,35,6.40
2007,04,12,00,36,6.40
2007,04,12,00,37,6.40
2007,04,12,00,38,6.40
2007,04,12,00,39,6.40
2007,04,12,00,40,6.40
2007,04,12,00,41,6.40
2007,04,12,00,42,6.40
2007,04,12,00,43,6.40
2007,04,12,00,44,6.40
2007,04,12,00,45,6.40
2007,04,12,00,46,6.40
2007,04,12,00,47,6.40
2007,04,12,00,48,6.40
2007,04,12,00,49,6.40
2007,04,12,00,50,6.40
2007,04,12,00,51,6.40
2007,04,12,00,52,6.40
2007,04,12,00,53,6.40
2007,04,12,00,54,6.40
2007,04,12,00,55,6.40
2007,04,12,00,56,6.40
2007,04,12,00,57,6.40
2007,04,12,00,58,6.40
2007,04,12,00,59,6.40
2007,04,12,01,00,6.40
2007,04,12,01,01,6.40
2007,04,12,01,02,6.40
2007,04,12,01,03,6.40
2007,04,12,01,04,6.40
2007,04,12,01,05,6.40
2007,04,12,01,06,6.40
2007,04,12,01,07,6.40
2007,04,12,01,08,6.40
2007,04,12,01,09,6.40
2007,04,12,01,10,6.40
2007,04,12,01,11,6.40
2007,04,12,01,12,6.40
2007,04,12,01,13,6.40
2007,04,12,01,14,6.40
2007,04,12,01,15,6.40
2007,04,12,01,16,6.40
2007,04,12,01,17,6.40
2007,04,12,01,18,6.40
2007,04,12,01,19,6.40
2007,04,12,01,20,6.40
2007,04,12,01,21,6.40
2007,04,12,01,22,6.40
2007,04,12,01,23,6.40
2007,04,12,01,24,6.40
2007,04,12,01,25,6.40
2007,04,12,01,26,6.40
2007,04,12,01,27,6.30
2007,04,12,01,28,6.30
2007,04,12,01,29,6.30
2007,04,12,01,30,6.30
2007,04,12,01,31,6.30
2007,04,12,01,32,6.30
2007,04,12,01,33,6.30
2007,04,12,01,34,6.30
2007,04,12,01,35,6.30
2007,04,12,01,36,6.20
2007,04,12,01,37,6.20
2007,04,12,01,38,6.20
2007,04,12,01,39,6.20
2007,04,12,01,40,6.20
2007,04,12,01,41,6.20
2007,04,12,01,42,6.20
2007,04,12,01,43,6.10
2007,04,12,01,44,6.10
2007,04,12,01,45,6.10
2007,04,12,01,46,6.10
2007,04,12,01,47,6.00
2007,04,12,01,48,6.00
2007,04,12,01,49,6.00
2007,04,12,01,50,6.00
2007,04,12,01,51,6.10
2007,04,12,01,52,6.10
2007,04,12,01,53,6.10
2007,04,12,01,54,6.20
2007,04,12,01,55,6.20
2007,04,12,01,56,6.20
2007,04,12,01,57,6.30
2007,04,12,01,58,6.30
2007,04,12,01,59,6.40
2007,04,12,02,00,6.40
2007,04,12,02,01,6.40
2007,04,12,02,02,6.40
2007,04,12,02,03,6.40
2007,04,12,02,04,6.40
2007,04,12,02,05,6.40
2007,04,12,02,06,6.40
2007,04,12,02,07,6.40
2007,04,12,02,08,6.40
2007,04,12,02,09,6.40
2007,04,12,02,10,6.40
2007,04,12,02,11,6.40
2007,04,12,02,12,6.40
2007,04,12,02,13,6.40
2007,04,12,02,14,6.40
2007,04,12,02,15,6.40
2007,04,12,02,16,6.40
2007,04,12,02,17,6.40
2007,04,12,02,18,6.40
2007,04,12,02,19,6.40
2007,04,12,02,20,6.40
2007,04,12,02,21,6.40
2007,04,12,02,22,6.40
2007,04,12,02,23,6.40
2007,04,12,02,24,6.40
2007,04,12,02,25,6.40
2007,04,12,02,26,6.40
2007,04,12,02,27,6.40
2007,04,12,02,28,6.40
2007,04,12,02,29,6.40
2007,04,12,02,30,6.40
2007,04,12,02,31,6.40
2007,04,12,02,32,6.40
2007,04,12,02,33,6.40
2007,04,12,02,34,6.40
2007,04,12,02,35,6.40
2007,04,12,02,36,6.40
2007,04,12,02,37,6.40
2007,04,12,02,38,6.40
2007,04,12,02,39,6.40
2007,04,12,02,40,6.40
2007,04,12,02,41,6.40
2007,04,12,02,42,6.40
2007,04,12,02,43,6.40
2007,04,12,02,44,6.40
2007,04,12,02,45,6.40
2007,04,12,02,46,6.40
2007,04,12,02,47,6.40
2007,04,12,02,48,6.40
2007,04,12,02,49,6.40
2007,04,12,02,50,6.40
2007,04,12,02,51,6.40
2007,04,12,02,52,6.30
2007,04,12,02,53,6.30
2007,04,12,02,54,6.30
2007,04,12,02,55,6.30
2007,04,12,02,56,6.30
2007,04,12,02,57,6.30
2007,04,12,02,58,6.30
2007,04,12,02,59,6.30
2007,04,12,03,00,6.20
2007,04,12,03,01,6.20
2007,04,12,03,02,6.20
2007,04,12,03,03,6.20
2007,04,12,03,04,6.20
2007,04,12,03,05,6.20
2007,04,12,03,06,6.20
2007,04,12,03,07,6.20
2007,04,12,03,08,6.20
2007,04,12,03,09,6.20
2007,04,12,03,10,6.20
2007,04,12,03,11,6.20
2007,04,12,03,12,6.20
2007,04,12,03,13,6.20
2007,04,12,03,14,6.20
2007,04,12,03,15,6.20
2007,04,12,03,16,6.20
2007,04,12,03,17,6.20
2007,04,12,03,18,6.10
2007,04,12,03,19,6.20
2007,04,12,03,20,6.20
2007,04,12,03,21,6.20
2007,04,12,03,22,6.20
2007,04,12,03,23,6.20
2007,04,12,03,24,6.20
2007,04,12,03,25,6.20
2007,04,12,03,26,6.20
2007,04,12,03,27,6.20
2007,04,12,03,28,6.20
2007,04,12,03,29,6.20
2007,04,12,03,30,6.20
2007,04,12,03,31,6.20
2007,04,12,03,32,6.20
2007,04,12,03,33,6.20
2007,04,12,03,34,6.20
2007,04,12,03,35,6.20
2007,04,12,03,36,6.20
2007,04,12,03,37,6.20
2007,04,12,03,38,6.20
2007,04,12,03,39,6.20
2007,04,12,03,40,6.20
2007,04,12,03,41,6.20
2007,04,12,03,42,6.20
2007,04,12,03,43,6.20
2007,04,12,03,44,6.20
2007,04,12,03,45,6.20
2007,04,12,03,46,6.10
2007,04,12,03,47,6.10
2007,04,12,03,48,6.10
2007,04,12,03,49,6.10
2007,04,12,03,50,6.10
2007,04,12,03,51,6.10
2007,04,12,03,52,6.00
2007,04,12,03,53,6.00
2007,04,12,03,54,6.00
2007,04,12,03,55,6.00
2007,04,12,03,56,6.00
2007,04,12,03,57,6.00
2007,04,12,03,58,6.00
2007,04,12,03,59,6.00
2007,04,12,04,00,6.00
2007,04,12,04,01,6.00
2007,04,12,04,02,6.00
2007,04,12,04,03,5.90
2007,04,12,04,04,5.90
2007,04,12,04,06,5.90
2007,04,12,04,08,5.90
2007,04,12,04,09,5.90
2007,04,12,04,11,5.90
2007,04,12,04,14,5.90
2007,04,12,04,24,5.90
2007,04,12,04,26,5.80
2007,04,12,04,28,5.80
2007,04,12,04,29,5.80
2007,04,12,04,30,5.80
2007,04,12,04,31,5.80
2007,04,12,04,32,5.80
2007,04,12,04,33,5.80
2007,04,12,04,34,5.80
2007,04,12,04,35,5.80
2007,04,12,04,36,5.80
2007,04,12,04,37,5.80
2007,04,12,04,38,5.80
2007,04,12,04,39,5.80
2007,04,12,04,40,5.80
2007,04,12,04,41,5.80
2007,04,12,04,42,5.80
2007,04,12,04,43,5.80
2007,04,12,04,44,5.80
2007,04,12,04,45,5.80
2007,04,12,04,46,5.80
2007,04,12,04,47,5.80
2007,04,12,04,48,5.80
2007,04,12,04,49,5.80
2007,04,12,04,50,5.80
2007,04,12,04,51,5.80
2007,04,12,04,52,5.80
2007,04,12,04,53,5.80
2007,04,12,04,54,5.80
2007,04,12,04,55,5.80
2007,04,12,04,56,5.80
2007,04,12,04,57,5.80
2007,04,12,04,58,5.80
2007,04,12,04,59,5.80
2007,04,12,05,00,5.80
2007,04,12,05,01,5.80
2007,04,12,05,02,5.80
2007,04,12,05,03,5.80
2007,04,12,05,04,5.80
2007,04,12,05,05,5.80
2007,04,12,05,06,5.70
2007,04,12,05,07,5.70
2007,04,12,05,08,5.70
2007,04,12,05,09,5.70
2007,04,12,05,10,5.70
2007,04,12,05,11,5.70
2007,04,12,05,12,5.70
2007,04,12,05,13,5.70
2007,04,12,05,14,5.70
2007,04,12,05,15,5.70
2007,04,12,05,16,5.70
2007,04,12,05,17,5.70
2007,04,12,05,18,5.60
2007,04,12,05,19,5.60
2007,04,12,05,20,5.60
2007,04,12,05,21,5.60
2007,04,12,05,22,5.60
2007,04,12,05,23,5.50
2007,04,12,05,24,5.50
2007,04,12,05,25,5.50
2007,04,12,05,26,5.50
2007,04,12,05,27,5.50
2007,04,12,05,28,5.40
2007,04,12,05,29,5.40
2007,04,12,05,30,5.40
2007,04,12,05,31,5.40
2007,04,12,05,32,5.30
2007,04,12,05,33,5.30
2007,04,12,05,34,5.30
2007,04,12,05,35,5.30
2007,04,12,05,36,5.30
2007,04,12,05,37,5.30
2007,04,12,05,38,5.30
2007,04,12,05,39,5.30
2007,04,12,05,40,5.30
2007,04,12,05,41,5.30
2007,04,12,05,42,5.30
2007,04,12,05,43,5.30
2007,04,12,05,44,5.30
2007,04,12,05,45,5.20
2007,04,12,05,46,5.20
2007,04,12,05,47,5.20
2007,04,12,05,48,5.20
2007,04,12,05,49,5.20
2007,04,12,05,50,5.20
2007,04,12,05,51,5.20
2007,04,12,05,52,5.20
2007,04,12,05,53,5.20
2007,04,12,05,54,5.20
2007,04,12,05,55,5.20
2007,04,12,05,56,5.20
2007,04,12,05,57,5.20
2007,04,12,05,58,5.20
2007,04,12,05,59,5.20
2007,04,12,06,00,5.20
2007,04,12,06,01,5.20
2007,04,12,06,02,5.30
2007,04,12,06,03,5.30
2007,04,12,06,04,5.30
2007,04,12,06,05,5.30
2007,04,12,06,06,5.30
2007,04,12,06,07,5.30
2007,04,12,06,08,5.30
2007,04,12,06,09,5.30
2007,04,12,06,10,5.30
2007,04,12,06,11,5.30
2007,04,12,06,12,5.30
2007,04,12,06,13,5.30
2007,04,12,06,14,5.30
2007,04,12,06,15,5.30
2007,04,12,06,16,5.30
2007,04,12,06,17,5.30
2007,04,12,06,18,5.30
2007,04,12,06,19,5.30
2007,04,12,06,20,5.30
2007,04,12,06,21,5.30
2007,04,12,06,22,5.30
2007,04,12,06,23,5.30
2007,04,12,06,24,5.30
2007,04,12,06,25,5.30
2007,04,12,06,26,5.30
2007,04,12,06,27,5.30
2007,04,12,06,28,5.30
2007,04,12,06,29,5.30
2007,04,12,06,30,5.30
2007,04,12,06,31,5.30
2007,04,12,06,32,5.30
2007,04,12,06,33,5.30
2007,04,12,06,34,5.30
2007,04,12,06,35,5.30
2007,04,12,06,36,5.40
2007,04,12,06,37,5.40
2007,04,12,06,38,5.40
2007,04,12,06,39,5.30
2007,04,12,06,40,5.30
2007,04,12,06,41,5.30
2007,04,12,06,42,5.30
2007,04,12,06,43,5.30
2007,04,12,06,44,5.30
2007,04,12,06,45,5.30
2007,04,12,06,46,5.30
2007,04,12,06,47,5.30
2007,04,12,06,48,5.30
2007,04,12,06,49,5.30
2007,04,12,06,50,5.30
2007,04,12,06,51,5.30
2007,04,12,06,52,5.30
2007,04,12,06,53,5.30
2007,04,12,06,54,5.30
2007,04,12,06,55,5.30
2007,04,12,06,56,5.30
2007,04,12,06,57,5.30
2007,04,12,06,58,5.30
2007,04,12,06,59,5.30
2007,04,12,07,00,5.30
2007,04,12,07,01,5.30
2007,04,12,07,02,5.30
2007,04,12,07,03,5.30
2007,04,12,07,04,5.30
2007,04,12,07,05,5.30
2007,04,12,07,06,5.30
2007,04,12,07,07,5.30
2007,04,12,07,08,5.30
2007,04,12,07,09,5.30
2007,04,12,07,10,5.30
2007,04,12,07,11,5.40
2007,04,12,07,12,5.40
2007,04,12,07,13,5.40
2007,04,12,07,14,5.40
2007,04,12,07,15,5.40
2007,04,12,07,16,5.40
2007,04,12,07,17,5.40
2007,04,12,07,18,5.40
2007,04,12,07,19,5.40
2007,04,12,07,20,5.40
2007,04,12,07,21,5.40
2007,04,12,07,22,5.40
2007,04,12,07,23,5.40
2007,04,12,07,24,5.40
2007,04,12,07,25,5.40
2007,04,12,07,26,5.40
2007,04,12,07,27,5.40
2007,04,12,07,28,5.50
2007,04,12,07,29,5.50
2007,04,12,07,30,5.50
2007,04,12,07,31,5.50
2007,04,12,07,32,5.60
2007,04,12,07,33,5.60
2007,04,12,07,34,5.60
2007,04,12,07,35,5.60
2007,04,12,07,36,5.60
2007,04,12,07,37,5.60
2007,04,12,07,38,5.60
2007,04,12,07,39,5.60
2007,04,12,07,40,5.60
2007,04,12,07,41,5.60
2007,04,12,07,42,5.60
2007,04,12,07,43,5.60
2007,04,12,07,44,5.60
2007,04,12,07,45,5.60
2007,04,12,07,46,5.60
2007,04,12,07,47,5.60
2007,04,12,07,48,5.70
2007,04,12,07,49,5.70
2007,04,12,07,50,5.70
2007,04,12,07,51,5.70
2007,04,12,07,52,5.70
2007,04,12,07,53,5.70
2007,04,12,07,54,5.70
2007,04,12,07,55,5.70
2007,04,12,07,56,5.70
2007,04,12,07,57,5.70
2007,04,12,07,58,5.70
2007,04,12,07,59,5.70
2007,04,12,08,00,5.80
2007,04,12,08,01,5.80
2007,04,12,08,02,5.80
2007,04,12,08,03,5.80
2007,04,12,08,04,5.80
2007,04,12,08,05,5.80
2007,04,12,08,06,5.90
2007,04,12,08,07,5.90
2007,04,12,08,08,5.90
2007,04,12,08,09,5.90
2007,04,12,08,10,5.90
2007,04,12,08,11,5.90
2007,04,12,08,12,5.90
2007,04,12,08,13,6.00
2007,04,12,08,14,6.00
2007,04,12,08,15,6.00
2007,04,12,08,16,6.00
2007,04,12,08,17,6.00
2007,04,12,08,18,6.00
2007,04,12,08,19,6.00
2007,04,12,08,20,6.00
2007,04,12,08,21,6.00
2007,04,12,08,22,6.00
2007,04,12,08,23,6.00
2007,04,12,08,24,6.00
2007,04,12,08,25,6.10
2007,04,12,08,26,6.10
2007,04,12,08,27,6.10
2007,04,12,08,28,6.10
2007,04,12,08,29,6.10
2007,04,12,08,30,6.10
2007,04,12,08,31,6.20
2007,04,12,08,32,6.20
2007,04,12,08,33,6.20
2007,04,12,08,34,6.20
2007,04,12,08,35,6.20
2007,04,12,08,36,6.20
2007,04,12,08,37,6.20
2007,04,12,08,38,6.20
2007,04,12,08,39,6.20
2007,04,12,08,40,6.20
2007,04,12,08,41,6.20
2007,04,12,08,42,6.20
2007,04,12,08,43,6.20
2007,04,12,08,44,6.20
2007,04,12,08,45,6.20
2007,04,12,08,46,6.20
2007,04,12,08,47,6.20
2007,04,12,08,48,6.30
2007,04,12,08,49,6.30
2007,04,12,08,50,6.30
2007,04,12,08,51,6.30
2007,04,12,08,52,6.40
2007,04,12,08,53,6.40
2007,04,12,08,54,6.40
2007,04,12,08,55,6.40
2007,04,12,08,56,6.40
2007,04,12,08,57,6.40
2007,04,12,08,58,6.50
2007,04,12,08,59,6.60
2007,04,12,09,00,6.60
2007,04,12,09,01,6.60
2007,04,12,09,02,6.60
2007,04,12,09,03,6.60
2007,04,12,09,04,6.70
2007,04,12,09,05,6.70
2007,04,12,09,06,6.70
2007,04,12,09,07,6.80
2007,04,12,09,08,6.80
2007,04,12,09,09,6.80
2007,04,12,09,10,6.80
2007,04,12,09,11,6.90
2007,04,12,09,12,6.90
2007,04,12,09,13,7.00
2007,04,12,09,14,7.00
2007,04,12,09,15,7.00
2007,04,12,09,16,7.10
2007,04,12,09,17,7.10
2007,04,12,09,18,7.20
2007,04,12,09,19,7.20
2007,04,12,09,20,7.30
2007,04,12,09,21,7.30
2007,04,12,09,22,7.30
2007,04,12,09,23,7.40
2007,04,12,09,24,7.40
2007,04,12,09,25,7.50
2007,04,12,09,26,7.50
2007,04,12,09,27,7.50
2007,04,12,09,28,7.60
2007,04,12,09,29,7.60
2007,04,12,09,30,7.70
2007,04,12,09,31,7.70
2007,04,12,09,32,7.80
2007,04,12,09,33,7.80
2007,04,12,09,34,7.80
2007,04,12,09,35,7.90
2007,04,12,09,36,7.90
2007,04,12,09,37,8.00
2007,04,12,09,38,8.00
2007,04,12,09,39,8.10
2007,04,12,09,40,8.10
2007,04,12,09,41,8.20
2007,04,12,09,42,8.20
2007,04,12,09,43,8.30
2007,04,12,09,44,8.40
2007,04,12,09,45,8.40
2007,04,12,09,46,8.50
2007,04,12,09,47,8.50
2007,04,12,09,48,8.60
2007,04,12,09,49,8.60
2007,04,12,09,50,8.70
2007,04,12,09,51,8.70
2007,04,12,09,52,8.70
2007,04,12,09,53,8.70
2007,04,12,09,54,8.80
2007,04,12,09,55,8.80
2007,04,12,09,56,8.90
2007,04,12,09,57,8.90
2007,04,12,09,58,9.00
2007,04,12,09,59,9.00
2007,04,12,10,00,9.00
2007,04,12,10,01,9.00
2007,04,12,10,02,9.10
2007,04,12,10,03,9.10
2007,04,12,10,04,9.10
2007,04,12,10,05,9.10
2007,04,12,10,06,9.10
2007,04,12,10,07,9.20
2007,04,12,10,08,9.20
2007,04,12,10,09,9.20
2007,04,12,10,10,9.20
2007,04,12,10,11,9.30
2007,04,12,10,12,9.30
2007,04,12,10,13,9.40
2007,04,12,10,14,9.40
2007,04,12,10,15,9.40
2007,04,12,10,16,9.40
2007,04,12,10,17,9.50
2007,04,12,10,18,9.50
2007,04,12,10,19,9.60
2007,04,12,10,20,9.60
2007,04,12,10,21,9.60
2007,04,12,10,22,9.70
2007,04,12,10,23,9.70
2007,04,12,10,24,9.70
2007,04,12,10,25,9.80
2007,04,12,10,26,9.80
2007,04,12,10,27,9.90
2007,04,12,10,28,9.90
2007,04,12,10,29,10.00
2007,04,12,10,30,10.10
2007,04,12,10,31,10.10
2007,04,12,10,32,10.20
2007,04,12,10,33,10.20
2007,04,12,10,34,10.30
2007,04,12,10,35,10.30
2007,04,12,10,36,10.40
2007,04,12,10,37,10.40
2007,04,12,10,38,10.40
2007,04,12,10,39,10.50
2007,04,12,10,40,10.60
2007,04,12,10,41,10.60
2007,04,12,10,42,10.60
2007,04,12,10,43,10.60
2007,04,12,10,44,10.60
2007,04,12,10,45,10.70
2007,04,12,10,46,10.80
2007,04,12,10,47,10.90
2007,04,12,10,48,11.00
2007,04,12,10,49,11.10
2007,04,12,10,50,11.20
2007,04,12,10,51,11.30
2007,04,12,10,52,11.40
2007,04,12,10,53,11.50
2007,04,12,10,54,11.60
2007,04,12,10,55,11.70
2007,04,12,10,56,11.80
2007,04,12,10,57,11.90
2007,04,12,10,58,12.00
2007,04,12,10,59,12.10
2007,04,12,11,00,12.20
2007,04,12,11,01,12.20
2007,04,12,11,02,12.30
2007,04,12,11,03,12.30
2007,04,12,11,04,12.20
2007,04,12,11,05,12.10
2007,04,12,11,06,12.00
2007,04,12,11,07,12.00
2007,04,12,11,08,11.90
2007,04,12,11,09,11.80
2007,04,12,11,10,11.80
2007,04,12,11,11,11.80
2007,04,12,11,12,11.80
2007,04,12,11,13,11.70
2007,04,12,11,14,11.70
2007,04,12,11,15,11.70
2007,04,12,11,16,11.60
2007,04,12,11,17,11.60
2007,04,12,11,18,11.60
2007,04,12,11,19,11.60
2007,04,12,11,20,11.60
2007,04,12,11,21,11.60
2007,04,12,11,22,11.60
2007,04,12,11,23,11.60
2007,04,12,11,24,11.60
2007,04,12,11,25,11.60
2007,04,12,11,26,11.60
2007,04,12,11,27,11.60
2007,04,12,11,28,11.60
2007,04,12,11,29,11.60
2007,04,12,11,30,11.60
2007,04,12,11,31,11.60
2007,04,12,11,32,11.60
2007,04,12,11,33,11.60
2007,04,12,11,34,11.60
2007,04,12,11,35,11.60
2007,04,12,11,36,11.60
2007,04,12,11,37,11.60
2007,04,12,11,38,11.60
2007,04,12,11,39,11.60
2007,04,12,11,40,11.60
2007,04,12,11,41,11.60
2007,04,12,11,43,11.60
2007,04,12,11,44,11.60
2007,04,12,11,45,11.60
2007,04,12,11,46,11.60
2007,04,12,11,47,11.60
2007,04,12,11,48,11.60
2007,04,12,11,49,11.70
2007,04,12,11,50,11.60
2007,04,12,11,51,11.60
2007,04,12,11,52,11.60
2007,04,12,11,53,11.40
2007,04,12,11,54,11.40
2007,04,12,11,55,11.40
2007,04,12,11,56,11.40
2007,04,12,11,57,11.50
2007,04,12,11,58,11.40
2007,04,12,11,59,11.40
2007,04,12,12,00,11.40
2007,04,12,12,01,11.50
2007,04,12,12,02,11.50
2007,04,12,12,03,11.40
2007,04,12,12,04,11.40
2007,04,12,12,05,11.40
2007,04,12,12,06,11.40
2007,04,12,12,07,11.30
2007,04,12,12,08,11.20
2007,04,12,12,09,11.20
2007,04,12,12,10,11.10
2007,04,12,12,11,11.10
2007,04,12,12,12,11.10
2007,04,12,12,13,11.10
2007,04,12,12,14,11.00
2007,04,12,12,15,10.90
2007,04,12,12,16,10.90
2007,04,12,12,17,10.90
2007,04,12,12,18,10.90
2007,04,12,12,19,10.90
2007,04,12,12,20,10.90
2007,04,12,12,21,10.90
2007,04,12,12,22,10.90
2007,04,12,12,23,10.90
2007,04,12,12,24,10.90
2007,04,12,12,25,10.90
2007,04,12,12,26,10.90
2007,04,12,12,27,10.90
2007,04,12,12,28,10.90
2007,04,12,12,29,10.90
2007,04,12,12,30,11.00
2007,04,12,12,31,11.10
2007,04,12,12,32,11.10
2007,04,12,12,33,11.10
2007,04,12,12,34,11.10
2007,04,12,12,35,11.00
2007,04,12,12,36,10.90
2007,04,12,12,37,11.10
2007,04,12,12,38,11.10
2007,04,12,12,39,11.10
2007,04,12,12,40,11.10
2007,04,12,12,41,11.10
2007,04,12,12,42,11.10
2007,04,12,12,43,11.00
2007,04,12,12,44,10.90
2007,04,12,12,45,10.90
2007,04,12,12,46,10.90
2007,04,12,12,47,10.90
2007,04,12,12,48,10.90
2007,04,12,12,49,10.90
2007,04,12,12,50,10.90
2007,04,12,12,51,10.90
2007,04,12,12,52,10.90
2007,04,12,12,53,10.90
2007,04,12,12,54,10.90
2007,04,12,12,55,10.90
2007,04,12,12,56,10.90
2007,04,12,12,57,11.00
2007,04,12,12,58,11.10
2007,04,12,12,59,11.10
2007,04,12,13,00,11.10
2007,04,12,13,01,11.10
2007,04,12,13,02,11.10
2007,04,12,13,03,11.10
2007,04,12,13,04,11.10
2007,04,12,13,05,11.10
2007,04,12,13,06,11.10
2007,04,12,13,07,11.10
2007,04,12,13,08,11.10
2007,04,12,13,09,11.10
2007,04,12,13,10,11.10
2007,04,12,13,11,11.10
2007,04,12,13,12,11.10
2007,04,12,13,13,11.10
2007,04,12,13,14,11.10
2007,04,12,13,15,11.10
2007,04,12,13,16,11.10
2007,04,12,13,17,11.10
2007,04,12,13,18,11.10
2007,04,12,13,19,11.10
2007,04,12,13,20,11.10
2007,04,12,13,21,11.10
2007,04,12,13,22,11.10
2007,04,12,13,23,11.10
2007,04,12,13,24,11.10
2007,04,12,13,25,11.10
2007,04,12,13,26,11.20
2007,04,12,13,27,11.20
2007,04,12,13,28,11.30
2007,04,12,13,29,11.30
2007,04,12,13,30,11.30
2007,04,12,13,31,11.40
2007,04,12,13,32,11.40
2007,04,12,13,33,11.40
2007,04,12,13,34,11.40
2007,04,12,13,35,11.40
2007,04,12,13,36,11.40
2007,04,12,13,37,11.40
2007,04,12,13,38,11.40
2007,04,12,13,39,11.40
2007,04,12,13,40,11.40
2007,04,12,13,41,11.40
2007,04,12,13,42,11.40
2007,04,12,13,43,11.40
2007,04,12,13,44,11.40
2007,04,12,13,45,11.40
2007,04,12,13,46,11.40
2007,04,12,13,47,11.40
2007,04,12,13,48,11.40
2007,04,12,13,49,11.40
2007,04,12,13,50,11.40
2007,04,12,13,51,11.40
2007,04,12,13,52,11.40
2007,04,12,13,53,11.40
2007,04,12,13,54,11.40
2007,04,12,13,55,11.50
2007,04,12,13,56,11.60
2007,04,12,13,57,11.60
2007,04,12,13,58,11.60
2007,04,12,13,59,11.60
2007,04,12,14,00,11.60
2007,04,12,14,01,11.60
2007,04,12,14,02,11.60
2007,04,12,14,03,11.60
2007,04,12,14,04,11.60
2007,04,12,14,05,11.60
2007,04,12,14,06,11.70
2007,04,12,14,07,11.70
2007,04,12,14,08,11.70
2007,04,12,14,09,11.70
2007,04,12,14,10,11.80
2007,04,12,14,11,11.80
2007,04,12,14,12,11.80
2007,04,12,14,13,11.80
2007,04,12,14,14,11.90
2007,04,12,14,15,11.90
2007,04,12,14,16,11.90
2007,04,12,14,17,12.00
2007,04,12,14,18,12.00
2007,04,12,14,19,12.10
2007,04,12,14,20,12.20
2007,04,12,14,21,12.30
2007,04,12,14,22,12.30
2007,04,12,14,23,12.40
2007,04,12,14,24,12.40
2007,04,12,14,25,12.50
2007,04,12,14,26,12.50
2007,04,12,14,27,12.50
2007,04,12,14,28,12.50
2007,04,12,14,29,12.50
2007,04,12,14,30,12.50
2007,04,12,14,31,12.40
2007,04,12,14,32,12.40
2007,04,12,14,33,12.30
2007,04,12,14,34,12.30
2007,04,12,14,35,12.30
2007,04,12,14,36,12.30
2007,04,12,14,37,12.30
2007,04,12,14,38,12.20
2007,04,12,14,39,12.20
2007,04,12,14,40,12.20
2007,04,12,14,41,12.10
2007,04,12,14,42,12.10
2007,04,12,14,43,12.10
2007,04,12,14,44,12.00
2007,04,12,14,45,12.00
2007,04,12,14,46,11.90
2007,04,12,14,47,11.90
2007,04,12,14,48,11.80
2007,04,12,14,49,11.80
2007,04,12,14,50,11.80
2007,04,12,14,51,11.80
2007,04,12,14,52,11.80
2007,04,12,14,53,11.80
2007,04,12,14,54,11.80
2007,04,12,14,55,11.70
2007,04,12,14,56,11.70
2007,04,12,14,57,11.70
2007,04,12,14,58,11.70
2007,04,12,14,59,11.70
2007,04,12,15,00,11.70
2007,04,12,15,01,11.70
2007,04,12,15,02,11.80
2007,04,12,15,03,11.80
2007,04,12,15,04,11.80
2007,04,12,15,05,11.80
2007,04,12,15,06,11.80
2007,04,12,15,07,11.80
2007,04,12,15,08,11.80
2007,04,12,15,09,11.80
2007,04,12,15,10,11.80
2007,04,12,15,11,11.80
2007,04,12,15,12,11.80
2007,04,12,15,13,11.80
2007,04,12,15,14,11.80
2007,04,12,15,15,11.80
2007,04,12,15,16,11.80
2007,04,12,15,17,11.80
2007,04,12,15,18,11.80
2007,04,12,15,19,11.80
2007,04,12,15,20,11.80
2007,04,12,15,21,11.80
2007,04,12,15,22,11.90
2007,04,12,15,23,12.00
2007,04,12,15,24,12.00
2007,04,12,15,25,12.10
2007,04,12,15,26,12.10
2007,04,12,15,27,12.20
2007,04,12,15,28,12.20
2007,04,12,15,29,12.00
2007,04,12,15,30,12.00
2007,04,12,15,31,12.00
2007,04,12,15,32,12.00
2007,04,12,15,33,12.00
2007,04,12,15,34,12.10
2007,04,12,15,35,12.20
2007,04,12,15,36,12.20
2007,04,12,15,37,12.30
2007,04,12,15,38,12.30
2007,04,12,15,39,12.30
2007,04,12,15,40,12.30
2007,04,12,15,41,12.30
2007,04,12,15,42,12.30
2007,04,12,15,43,12.40
2007,04,12,15,44,12.40
2007,04,12,15,45,12.40
2007,04,12,15,46,12.40
2007,04,12,15,47,12.40
2007,04,12,15,48,12.40
2007,04,12,15,49,12.40
2007,04,12,15,50,12.40
2007,04,12,15,51,12.40
2007,04,12,15,52,12.30
2007,04,12,15,53,12.30
2007,04,12,15,54,12.30
2007,04,12,15,55,12.30
2007,04,12,15,56,12.40
2007,04,12,15,57,12.30
2007,04,12,15,58,12.30
2007,04,12,15,59,12.30
2007,04,12,16,00,12.30
2007,04,12,16,01,12.30
2007,04,12,16,02,12.30
2007,04,12,16,03,12.30
2007,04,12,16,04,12.20
2007,04,12,16,05,12.10
2007,04,12,16,06,12.10
2007,04,12,16,07,12.00
2007,04,12,16,09,11.80
2007,04,12,16,10,11.80
2007,04,12,16,11,11.80
2007,04,12,16,12,11.80
2007,04,12,16,13,11.70
2007,04,12,16,14,11.70
2007,04,12,16,15,11.70
2007,04,12,16,16,11.70
2007,04,12,16,17,11.60
2007,04,12,16,18,11.60
2007,04,12,16,19,11.60
2007,04,12,16,20,11.60
2007,04,12,16,21,11.60
2007,04,12,16,22,11.60
2007,04,12,16,23,11.60
2007,04,12,16,24,11.60
2007,04,12,16,25,11.60
2007,04,12,16,26,11.80
2007,04,12,16,27,11.80
2007,04,12,16,28,12.00
2007,04,12,16,29,12.10
2007,04,12,16,30,12.10
2007,04,12,16,31,12.20
2007,04,12,16,32,12.30
2007,04,12,16,33,12.40
2007,04,12,16,34,12.50
2007,04,12,16,35,12.60
2007,04,12,16,36,12.60
2007,04,12,16,37,12.70
2007,04,12,16,38,12.80
2007,04,12,16,39,12.90
2007,04,12,16,40,12.90
2007,04,12,16,41,13.00
2007,04,12,16,42,13.10
2007,04,12,16,43,13.20
2007,04,12,16,44,13.20
2007,04,12,16,45,13.30
2007,04,12,16,46,13.30
2007,04,12,16,47,13.30
2007,04,12,16,48,13.30
2007,04,12,16,49,13.40
2007,04,12,16,50,13.40
2007,04,12,16,51,13.30
2007,04,12,16,52,13.30
2007,04,12,16,53,13.30
2007,04,12,16,54,13.20
2007,04,12,16,55,13.20
2007,04,12,16,56,13.20
2007,04,12,16,57,13.20
2007,04,12,16,58,13.20
2007,04,12,16,59,13.10
2007,04,12,17,00,13.10
2007,04,12,17,01,13.00
2007,04,12,17,02,13.00
2007,04,12,17,03,13.00
2007,04,12,17,04,12.90
2007,04,12,17,05,12.90
2007,04,12,17,06,12.90
2007,04,12,17,07,12.90
2007,04,12,17,08,12.90
2007,04,12,17,09,12.90
2007,04,12,17,10,12.80
2007,04,12,17,11,12.80
2007,04,12,17,12,12.80
2007,04,12,17,13,12.80
2007,04,12,17,14,12.80
2007,04,12,17,15,12.80
2007,04,12,17,16,12.80
2007,04,12,17,17,12.70
2007,04,12,17,18,12.70
2007,04,12,17,19,12.60
2007,04,12,17,20,12.50
2007,04,12,17,21,12.50
2007,04,12,17,22,12.40
2007,04,12,17,23,12.40
2007,04,12,17,24,12.30
2007,04,12,17,25,12.30
2007,04,12,17,26,12.20
2007,04,12,17,27,12.10
2007,04,12,17,28,12.00
2007,04,12,17,29,12.00
2007,04,12,17,30,12.00
2007,04,12,17,31,11.90
2007,04,12,17,32,11.90
2007,04,12,17,33,11.90
2007,04,12,17,34,11.90
2007,04,12,17,35,11.90
2007,04,12,17,36,11.90
2007,04,12,17,37,12.00
2007,04,12,17,38,12.00
2007,04,12,17,39,12.00
2007,04,12,17,40,12.00
2007,04,12,17,41,12.00
2007,04,12,17,42,12.10
2007,04,12,17,43,12.00
2007,04,12,17,44,12.00
2007,04,12,17,45,12.00
2007,04,12,17,46,11.90
2007,04,12,17,47,11.90
2007,04,12,17,48,11.80
2007,04,12,17,49,11.80
2007,04,12,17,50,11.80
2007,04,12,17,51,11.80
2007,04,12,17,52,11.70
2007,04,12,17,53,11.70
2007,04,12,17,54,11.70
2007,04,12,17,55,11.70
2007,04,12,17,56,11.70
2007,04,12,17,57,11.80
2007,04,12,17,58,11.80
2007,04,12,17,59,11.70
2007,04,12,18,00,11.70
2007,04,12,18,01,11.70
2007,04,12,18,02,11.70
2007,04,12,18,03,11.60
2007,04,12,18,04,11.60